User: anonymous   Login
Location: ?????
(54.9266°N, 38.5527°E)
Time: 01:29:40
(UTC+00:00)
Language:

COSMOS 2428 - Orbit

View from above orbital plane
View from above orbital plane
View from above satellite
View from above satellite

Ground track
Ground track

The orbit data is extracted from the following two-line orbital elements,

1 31792U 07029A   24174.15560890 -.00000234  00000-0 -10054-3 0  9996
2 31792  70.9411  76.3514 0008623  30.5894 329.5728 14.12712576875743
Epoch (UTC): 22 June 2024 03:44:04
Eccentricity: 0.0008623
inclination: 70.9411°
perigee height: 844 km
apogee height: 856 km
right ascension of ascending node: 76.3514°
argument of perigee: 30.5894°
revolutions per day: 14.12712576
mean anomaly at epoch: 329.5728°
orbit number at epoch: 87574

The dashed part of the orbit path shows where the satellite is in the earth's shadow,  

DLR